Regional Weather Roundup
Issued by NWS

Home | Current Version | Previous Version | Graphics & Text | Print | Product List | Glossary On
Versions: 1 2 3 4 5 6 7 8 9 10 11 12 13 14 15 16 17 18 19 20 21 22 23 24 25 26 27
000
ASUS45 KBOU 290907
RWRCO

WEATHER ROUNDUP FOR COLORADO
NATIONAL WEATHER SERVICE DENVER/BOULDER CO
300 AM MDT MON MAY 29 2017

NOTE: "FAIR" INDICATES FEW OR NO CLOUDS BELOW 12000 FEET WITH NO
SIGNIFICANT WEATHER AND/OR OBSTRUCTIONS TO VISIBILITY.

COZ001>005-013-030-031-291000-
...NORTHWEST COLORADO...

CITY           SKY/WX    TMP DP  RH WIND       PRES   REMARKS
CRAIG          FAIR      36  32  85 CALM      30.27R
HAYDEN         FAIR      43  30  61 E10       30.27S
MEEKER         FAIR      39  31  72 E6        30.26F
RABBIT EARS PA FAIR      36  28  75 S6        30.44S
STEAMBOAT SPGS FAIR      38  33  81 CALM      30.29F
WALDEN           N/A     34  30  86 CALM      30.37R
$$

COZ006>008-011-291000-
...WEST CENTRAL VALLEYS...

CITY           SKY/WX    TMP DP  RH WIND       PRES   REMARKS
GRAND JUNCTION FAIR      58  29  33 SE8       30.15R
MONTROSE       FAIR      50  22  33 SE10      30.22F
EAGLE          FAIR      41  30  65 S3        30.32R
RIFLE          FAIR      48  28  46 CALM      30.23S
DELTA          FAIR      51  25  36 NE3       30.20R
NUCLA          FAIR      48  21  34 E10       30.24F
$$

COZ017>023-064>068-291000-
...SOUTHWEST COLORADO...

CITY           SKY/WX    TMP DP  RH WIND       PRES   REMARKS
DURANGO        FAIR      40  22  48 N6        30.23R
CORTEZ         FAIR      37  29  72 SE6       30.20S
PAGOSA SPRINGS FAIR      39  16  38 CALM      30.29S
TELLURIDE      FAIR      40  20  45 SE6       30.38F
WOLF CREEK PAS FAIR      34  14  44 N6        30.53F WCI  29
$$

COZ009-010-012-014-032>034-037-058>063-291000-
...CENTRAL COLORADO...

CITY           SKY/WX    TMP DP  RH WIND       PRES   REMARKS
ASPEN          FAIR      36  28  73 S8        30.31F
BUENA VISTA    FAIR      39  27  61 NW5       30.36S
COPPER MTN     MOCLDY    36  21  55 S6        30.50S
BERTHOUD PASS  FAIR      28  18  64 SW5       30.50F WCI  23
COTTONWOOD PAS FAIR      45  23  42 CALM      30.43R
GUNNISON       FAIR      36  24  62 NE3       30.34S
KREMMLING      FAIR      41  34  75 CALM      30.34S
LEADVILLE      FAIR      27  21  78 CALM      30.41S
MONARCH PASS   FAIR      32  27  80 NE12      30.60S WCI  23
SALIDA         FAIR      47  28  47 N7        30.41F
SUNLIGHT       FAIR      36  23  60 CALM      30.48S
WILKERSON PASS FAIR      32  25  74 S7        30.50F WCI  26
$$

COZ069>075-291000-
...SAN LUIS VALLEY/SANGRE DE CRISTO MOUNTAINS...

CITY           SKY/WX    TMP DP  RH WIND       PRES   REMARKS
ALAMOSA        FAIR      38  33  82 E3        30.29R
DEL NORTE      FAIR      42  21  42 W10       30.32R
LA VETA PASS   FAIR      39  28  65 MISG      30.53S
SAGUACHE       FAIR      41  19  42 N10       30.31S
$$

COZ035-036-038>040-291000-
...NORTHERN COLORADO FRONT RANGE...

CITY           SKY/WX    TMP DP  RH WIND       PRES   REMARKS
DENVER INTL AP FAIR      49  44  83 SW7       30.27F
DMNS CITY PARK   N/A     51  42  71 E7        30.27F
AURORA         PTCLDY    45  41  85 S7        30.29F
FRONT RANGE AP LGT RAIN  50  46  87 W9G16     30.28F
ERIE MUNI ARPT FAIR      49  46  89 CALM      30.28S
BOULDER MUN AP FAIR      52  46  82 SW6       30.27F
CENTENNIAL     MOCLDY    48  41  76 SE5       30.30F
BROOMFIELD     FAIR      48  43  81 W6        30.30S
FORT COLLINS   FAIR      46  42  86 SW7       30.27F
LONGMONT       FAIR      47  43  85 CALM      30.29F
$$

COZ041-046-047-076>085-087-088-291000-
...PIKES PEAK/PALMER DIVIDE AND SOUTHERN FOOTHILLS...

CITY           SKY/WX    TMP DP  RH WIND       PRES   REMARKS
COLO. SPRINGS  FAIR      50  37  61 NW9       30.31S
A. F. ACADEMY  FAIR      42  36  80 N10       30.31S
SCHRIEVER AFB  FAIR      46  38  72 N16       30.30S
CHEYENNE MTN   FAIR      48  34  57 NW12G20   30.27S
ELLICOTT       FAIR     N/A N/A N/A N6        30.28S
FALCON         FAIR      45  36  71 N10       30.32F
FORT CARSON    FAIR      47  36  66 NW9       30.28S
LIMON          FAIR      44  42  93 NW3       30.26S
MONUMENT HILL  FAIR      37  34  87 CALM      30.35S
CANON CITY     NOT AVBL
WALSENBURG     FAIR      41  39  93 SW5       30.26S
TRINIDAD       FAIR      45  34  65 W9        30.25F
$$

COZ042>045-048>051-090-091-291000-
...NORTHEAST COLORADO...

CITY           SKY/WX    TMP DP  RH WIND       PRES   REMARKS
GREELEY ARPT   CLOUDY    51  46  83 SW6       30.26F
AKRON          CLOUDY    50  43  77 W10       30.22S
BURLINGTON     FAIR      53  47  79 NW7       30.19F
WRAY           FAIR      45  45 100 SW10      30.16S
YUMA           PTSUNNY   46  36  66 W9        30.18F
STERLING       NOT AVBL
HOLYOKE        NOT AVBL
FORT MORGAN    CLOUDY    49  43  80 W6        30.24S
$$

COZ086-089-092>099-291000-
...SOUTHEAST COLORADO...

CITY           SKY/WX    TMP DP  RH WIND       PRES   REMARKS
PUEBLO         FAIR      54  42  64 CALM      30.23S
LA JUNTA       FAIR      53  45  74 N9        30.22R
LAMAR          FAIR      50  43  77 N6        30.18R
SPRINGFIELD      N/A     54  45  71 VRB5      30.19S
$$




USA.gov is the U.S. government's official web portal to all federal, state and local government web resources and services.